Volver al catálogo

STARLINK-11206

ActivoComunicacionesVLEO
NORAD 60312·PAYLOAD·🇺🇸 United States

Lanzado Jul 28, 2024 desde Vandenberg Space Force Base

Loading…

Próximos Pases (próximas 24 horas)

TLE

ActualizadoSource: CelesTrak SupGP

Época: Sep 14, 2026, 21:20 UTC

1 60312C 24133M   26257.88937500 -.00012724  00000+0 -10480-3 0  2577
2 60312  53.1567 293.8594 0001240  98.0421 332.1853 15.69717592    10

Sigue STARLINK-11206 en tiempo real con AllMySat

Download on the App Store